ITY1391 LIRF-LIMJ

Flight info

Callsign ITY1391
Flight time 0h 42m
Altitude 18000
Route GILIO M729 IDONA IDON1N
Aircraft A320/M-SDE3FGHIRWY/LB1

Departure

Time 2026-04-16 22:31
Airport Rome–Fiumicino Leonardo da Vinci International Airport (LIRF)

Arrival

Time 2026-04-16 23:14
Airport Genoa Cristoforo Colombo Airport (LIMJ)
Time Latitude Longitude Altitude Speed Heading
2026-04-16 21:59 41.79800 12.25687 15 ft 0 kts 295°
2026-04-16 22:21 41.79797 12.25695 14 ft 3 kts 295°
2026-04-16 22:22 41.79789 12.25718 16 ft 3 kts 295°
2026-04-16 22:22 41.79781 12.25741 16 ft 3 kts 323°
2026-04-16 22:22 41.79770 12.25747 15 ft 0 kts 24°
2026-04-16 22:25 41.79781 12.25754 15 ft 6 kts 25°
2026-04-16 22:25 41.79847 12.25799 14 ft 13 kts 30°
2026-04-16 22:25 41.79920 12.25853 14 ft 12 kts 24°
2026-04-16 22:26 41.79954 12.25874 15 ft 8 kts 25°
2026-04-16 22:26 41.80024 12.25917 14 ft 13 kts 24°
2026-04-16 22:26 41.80108 12.25966 14 ft 9 kts 23°
2026-04-16 22:26 41.80157 12.25999 14 ft 13 kts 27°
2026-04-16 22:27 41.80217 12.26036 14 ft 9 kts 24°
2026-04-16 22:27 41.80275 12.26071 14 ft 9 kts 24°
2026-04-16 22:27 41.80337 12.26110 14 ft 15 kts 25°
2026-04-16 22:27 41.80457 12.26177 17 ft 19 kts 12°
2026-04-16 22:28 41.80586 12.26139 16 ft 20 kts 343°
2026-04-16 22:28 41.80620 12.26125 16 ft 0 kts 342°
2026-04-16 22:29 41.80622 12.26124 16 ft 2 kts 342°
2026-04-16 22:30 41.80681 12.26100 19 ft 12 kts 343°
2026-04-16 22:30 41.80721 12.26062 19 ft 1 kts 248°
2026-04-16 22:30 41.80720 12.26061 19 ft 0 kts 247°
2026-04-16 22:30 41.80689 12.25951 17 ft 47 kts 250°
2026-04-16 22:31 41.80487 12.25221 17 ft 116 kts 250°
2026-04-16 22:31 41.80141 12.23967 43 ft 165 kts 250°
2026-04-16 22:31 41.79721 12.22495 640 ft 171 kts 250°
2026-04-16 22:31 41.79486 12.20866 1112 ft 189 kts 267°
2026-04-16 22:32 41.79419 12.19004 1484 ft 211 kts 268°
2026-04-16 22:32 41.79328 12.16932 2048 ft 236 kts 267°
2026-04-16 22:32 41.79228 12.14628 2631 ft 256 kts 267°
2026-04-16 22:32 41.79132 12.12213 3522 ft 263 kts 268°
2026-04-16 22:33 41.79047 12.09739 4448 ft 269 kts 268°
2026-04-16 22:33 41.79003 12.07212 5375 ft 274 kts 270°
2026-04-16 22:33 41.78995 12.04632 6286 ft 279 kts 270°
2026-04-16 22:33 41.79000 12.02007 7157 ft 284 kts 271°
2026-04-16 22:34 41.79007 11.99337 8035 ft 289 kts 271°
2026-04-16 22:34 41.79009 11.96623 8922 ft 293 kts 270°
2026-04-16 22:34 41.79006 11.93877 9813 ft 297 kts 270°
2026-04-16 22:34 41.79000 11.91093 10632 ft 301 kts 270°
2026-04-16 22:35 41.78991 11.88250 11294 ft 313 kts 270°
2026-04-16 22:35 41.79145 11.85291 11593 ft 332 kts 282°
2026-04-16 22:35 41.79841 11.82354 12194 ft 339 kts 296°
2026-04-16 22:35 41.81002 11.79593 12935 ft 342 kts 303°
2026-04-16 22:36 41.82231 11.76844 13706 ft 346 kts 303°
2026-04-16 22:36 41.83471 11.74065 14405 ft 349 kts 302°
2026-04-16 22:36 41.84720 11.71254 15079 ft 352 kts 302°
2026-04-16 22:36 41.85975 11.68420 15767 ft 355 kts 302°
2026-04-16 22:37 41.87235 11.65560 16442 ft 357 kts 302°
2026-04-16 22:37 41.88505 11.62675 17128 ft 360 kts 302°
2026-04-16 22:37 41.89820 11.59804 17798 ft 362 kts 307°
2026-04-16 22:37 41.91452 11.57224 18477 ft 363 kts 315°
2026-04-16 22:38 41.93206 11.54766 19048 ft 366 kts 315°
2026-04-16 22:38 41.94966 11.52283 19630 ft 369 kts 315°
2026-04-16 22:38 41.96739 11.49771 20205 ft 372 kts 315°
2026-04-16 22:38 41.98521 11.47241 20781 ft 374 kts 315°
2026-04-16 22:39 42.00319 11.44684 21342 ft 377 kts 316°
2026-04-16 22:39 42.02129 11.42110 21922 ft 380 kts 316°
2026-04-16 22:39 42.03955 11.39513 22478 ft 384 kts 316°
2026-04-16 22:39 42.05794 11.36896 23034 ft 387 kts 316°
2026-04-16 22:40 42.07650 11.34256 23589 ft 390 kts 316°
2026-04-16 22:40 42.09519 11.31593 24062 ft 393 kts 316°
2026-04-16 22:40 42.11399 11.28905 24523 ft 395 kts 316°
2026-04-16 22:40 42.13286 11.26206 25006 ft 397 kts 316°
2026-04-16 22:41 42.15187 11.23491 25467 ft 399 kts 316°
2026-04-16 22:41 42.17094 11.20770 25911 ft 401 kts 316°
2026-04-16 22:41 42.19010 11.18032 26347 ft 403 kts 316°
2026-04-16 22:41 42.20938 11.15272 26778 ft 405 kts 316°
2026-04-16 22:42 42.22871 11.12498 27188 ft 407 kts 315°
2026-04-16 22:42 42.24815 11.09705 27594 ft 409 kts 315°
2026-04-16 22:42 42.26767 11.06900 27983 ft 412 kts 315°
2026-04-16 22:42 42.28725 11.04081 28091 ft 408 kts 315°
2026-04-16 22:43 42.30623 11.01341 28104 ft 390 kts 315°
2026-04-16 22:43 42.32451 10.98704 28105 ft 384 kts 315°
2026-04-16 22:43 42.34314 10.96023 28103 ft 398 kts 315°
2026-04-16 22:43 42.36242 10.93247 28113 ft 411 kts 315°
2026-04-16 22:44 42.40216 10.87504 28103 ft 421 kts 315°
2026-04-16 22:44 42.44215 10.81703 28110 ft 422 kts 315°
2026-04-16 22:45 42.48196 10.75933 28105 ft 422 kts 315°
2026-04-16 22:45 42.52199 10.70121 28105 ft 422 kts 315°
2026-04-16 22:46 42.56197 10.64299 28112 ft 421 kts 315°
2026-04-16 22:46 42.60189 10.58483 28099 ft 421 kts 315°
2026-04-16 22:47 42.64170 10.52662 28102 ft 420 kts 315°
2026-04-16 22:47 42.68141 10.46833 28107 ft 420 kts 315°
2026-04-16 22:48 42.72151 10.41057 28101 ft 419 kts 320°
2026-04-16 22:48 42.76933 10.36664 28111 ft 414 kts 333°
2026-04-16 22:49 42.81982 10.32879 28114 ft 414 kts 333°
2026-04-16 22:49 42.87014 10.29079 28112 ft 413 kts 333°
2026-04-16 22:50 42.92038 10.25278 28113 ft 413 kts 333°
2026-04-16 22:50 42.97064 10.21476 28102 ft 413 kts 333°
2026-04-16 22:51 43.02085 10.17674 28103 ft 412 kts 333°
2026-04-16 22:51 43.07058 10.13886 28109 ft 412 kts 333°
2026-04-16 22:52 43.12062 10.10072 28116 ft 411 kts 333°
2026-04-16 22:52 43.17060 10.06264 28115 ft 411 kts 333°
2026-04-16 22:53 43.22050 10.02441 28111 ft 411 kts 333°
2026-04-16 22:53 43.24546 10.00525 27516 ft 413 kts 333°
2026-04-16 22:53 43.27046 9.98609 26860 ft 410 kts 333°
2026-04-16 22:54 43.29529 9.96708 26256 ft 406 kts 333°
2026-04-16 22:54 43.31982 9.94829 25659 ft 403 kts 333°
2026-04-16 22:54 43.34420 9.92963 25063 ft 400 kts 333°
2026-04-16 22:54 43.36844 9.91109 24473 ft 397 kts 333°
2026-04-16 22:55 43.39249 9.89267 23904 ft 395 kts 332°
2026-04-16 22:55 43.41640 9.87429 23305 ft 392 kts 332°
2026-04-16 22:55 43.44006 9.85598 22779 ft 388 kts 332°
2026-04-16 22:55 43.46342 9.83788 22289 ft 384 kts 332°
2026-04-16 22:56 43.48627 9.82018 21819 ft 379 kts 332°
2026-04-16 22:56 43.50941 9.80222 21361 ft 375 kts 332°
2026-04-16 22:56 43.53172 9.78492 20907 ft 371 kts 332°
2026-04-16 22:56 43.55412 9.76754 20440 ft 368 kts 332°
2026-04-16 22:57 43.57636 9.75029 19980 ft 365 kts 332°
2026-04-16 22:57 43.59842 9.73318 19504 ft 363 kts 332°
2026-04-16 22:57 43.62034 9.71616 19025 ft 361 kts 332°
2026-04-16 22:57 43.64218 9.69918 18555 ft 359 kts 332°
2026-04-16 22:58 43.66392 9.68226 18023 ft 358 kts 332°
2026-04-16 22:58 43.68553 9.66542 17523 ft 356 kts 332°
2026-04-16 22:58 43.70699 9.64869 17035 ft 353 kts 332°
2026-04-16 22:58 43.72836 9.63202 16545 ft 351 kts 332°
2026-04-16 22:59 43.74958 9.61545 16061 ft 350 kts 332°
2026-04-16 22:59 43.77076 9.59892 15579 ft 348 kts 332°
2026-04-16 22:59 43.79183 9.58248 15100 ft 347 kts 332°
2026-04-16 22:59 43.81286 9.56603 14620 ft 346 kts 332°
2026-04-16 23:00 43.83380 9.54963 14141 ft 346 kts 331°
2026-04-16 23:00 43.85470 9.53325 13622 ft 345 kts 331°
2026-04-16 23:00 43.87551 9.51691 13128 ft 342 kts 331°
2026-04-16 23:00 43.89591 9.50090 12644 ft 340 kts 331°
2026-04-16 23:01 43.91642 9.48479 12149 ft 338 kts 331°
2026-04-16 23:01 43.93661 9.46890 11927 ft 328 kts 331°
2026-04-16 23:01 43.95608 9.45361 11798 ft 315 kts 331°
2026-04-16 23:01 43.97457 9.43837 11651 ft 304 kts 325°
2026-04-16 23:02 43.99008 9.41924 11547 ft 294 kts 312°
2026-04-16 23:02 44.00205 9.39671 11433 ft 285 kts 305°
2026-04-16 23:02 44.01308 9.37433 11252 ft 278 kts 306°
2026-04-16 23:02 44.02389 9.35249 11136 ft 273 kts 306°
2026-04-16 23:03 44.03595 9.33231 11068 ft 272 kts 318°
2026-04-16 23:03 44.05095 9.31559 10445 ft 283 kts 324°
2026-04-16 23:03 44.06720 9.29954 9855 ft 284 kts 334°
2026-04-16 23:03 44.08547 9.29401 9637 ft 261 kts
2026-04-16 23:04 44.10297 9.29565 9427 ft 243 kts 355°
2026-04-16 23:04 44.11931 9.29096 9377 ft 240 kts 343°
2026-04-16 23:04 44.13508 9.28318 9286 ft 241 kts 340°
2026-04-16 23:04 44.15050 9.27496 9032 ft 237 kts 340°
2026-04-16 23:05 44.16561 9.26717 8740 ft 227 kts 341°
2026-04-16 23:05 44.18040 9.26001 8351 ft 222 kts 342°
2026-04-16 23:05 44.19484 9.25340 8030 ft 215 kts 343°
2026-04-16 23:05 44.20887 9.24725 7728 ft 208 kts 343°
2026-04-16 23:06 44.22262 9.24135 7453 ft 206 kts 343°
2026-04-16 23:06 44.23628 9.23560 7184 ft 205 kts 344°
2026-04-16 23:06 44.24991 9.22990 6920 ft 205 kts 344°
2026-04-16 23:06 44.26358 9.22416 6643 ft 205 kts 343°
2026-04-16 23:07 44.27726 9.21844 6344 ft 206 kts 343°
2026-04-16 23:07 44.29097 9.21274 6058 ft 205 kts 343°
2026-04-16 23:07 44.30465 9.20706 5782 ft 205 kts 343°
2026-04-16 23:07 44.31832 9.20140 5499 ft 205 kts 343°
2026-04-16 23:08 44.33177 9.19503 5222 ft 204 kts 330°
2026-04-16 23:08 44.34248 9.18250 4950 ft 202 kts 304°
2026-04-16 23:08 44.34824 9.16486 4667 ft 201 kts 284°
2026-04-16 23:08 44.35191 9.14578 4388 ft 206 kts 284°
2026-04-16 23:09 44.35442 9.13299 4201 ft 206 kts 284°
2026-04-16 23:09 44.35925 9.10851 3841 ft 205 kts 284°
2026-04-16 23:09 44.36182 9.09555 3650 ft 205 kts 284°
2026-04-16 23:09 44.36688 9.07012 3303 ft 203 kts 285°
2026-04-16 23:10 44.37062 9.05135 2995 ft 199 kts 285°
2026-04-16 23:10 44.37422 9.03307 2705 ft 190 kts 285°
2026-04-16 23:10 44.37763 9.01579 2450 ft 180 kts 285°
2026-04-16 23:10 44.38088 8.99937 2199 ft 171 kts 285°
2026-04-16 23:11 44.38298 8.98874 2043 ft 166 kts 285°
2026-04-16 23:11 44.38603 8.97333 1815 ft 164 kts 286°
2026-04-16 23:11 44.38900 8.95833 1582 ft 159 kts 286°
2026-04-16 23:11 44.39180 8.94407 1389 ft 146 kts 286°
2026-04-16 23:12 44.39444 8.93061 1180 ft 142 kts 286°
2026-04-16 23:12 44.39702 8.91746 986 ft 140 kts 286°
2026-04-16 23:12 44.39960 8.90443 791 ft 138 kts 287°
2026-04-16 23:12 44.40217 8.89152 572 ft 137 kts 287°
2026-04-16 23:13 44.40473 8.87868 375 ft 136 kts 287°
2026-04-16 23:13 44.40735 8.86592 198 ft 136 kts 287°
2026-04-16 23:13 44.40976 8.85317 21 ft 133 kts 287°
2026-04-16 23:13 44.41178 8.84272 22 ft 87 kts 285°
2026-04-16 23:14 44.41280 8.83809 21 ft 7 kts 335°
2026-04-16 23:14 44.41320 8.83776 20 ft 7 kts 324°
2026-04-16 23:14 44.41356 8.83746 20 ft 6 kts 341°
2026-04-16 23:14 44.41403 8.83763 22 ft 7 kts 38°
2026-04-16 23:15 44.41410 8.83869 22 ft 5 kts 104°
2026-04-16 23:15 44.41402 8.83910 20 ft 4 kts 105°
2026-04-16 23:15 44.41392 8.83960 21 ft 10 kts 105°
2026-04-16 23:16 44.41367 8.84091 21 ft 9 kts 107°
2026-04-16 23:16 44.41353 8.84155 21 ft 6 kts 104°
2026-04-16 23:16 44.41334 8.84257 20 ft 17 kts 105°
2026-04-16 23:16 44.41311 8.84378 20 ft 12 kts 94°
2026-04-16 23:17 44.41348 8.84467 20 ft 10 kts 52°
2026-04-16 23:17 44.41392 8.84547 20 ft 13 kts 52°
2026-04-16 23:17 44.41453 8.84657 20 ft 15 kts 53°
2026-04-16 23:17 44.41520 8.84780 20 ft 16 kts 53°
2026-04-16 23:18 44.41555 8.84861 20 ft 7 kts 86°
2026-04-16 23:18 44.41550 8.84895 20 ft 4 kts 104°
2026-04-16 23:18 44.41542 8.84935 22 ft 3 kts 105°
2026-04-16 23:18 44.41538 8.84957 20 ft 0 kts 105°